Back to catalog

STARLINK-36945

AliveCommunicationsVLEO
NORAD 68050·PAYLOAD·🇺🇸 United States

Launched Mar 2, 2026 from Vandenberg Space Force Base

Loading…

Next Passes (next 24 hours)

TLE

FreshSource: CelesTrak SupGP

Epoch: Sep 14, 2026, 15:01 UTC

1 68050C 26041L   26257.62618056 -.00030206  00000+0 -89273-3 0  2579
2 68050  53.1579 247.3951 0001332  90.0793 284.9417 15.34395399    16

Track STARLINK-36945 in real time with AllMySat

Download on the App Store